Elk Mountain, WY

1:52 AM MST on December 10, 2019 (GMT -0700)
Elk Mountain

Weather History for KEHY - November, 2019

Change the Weather History Date:

Saturday, November 16, 2019

  Actual Average (KSAA) Record (KSAA)
Temperature  
Mean Temperature 35 °F -  
Max Temperature 44 °F 42 °F 60 °F (2016)
Min Temperature 26 °F 18 °F -14 °F (2014)
Degree Days  
Heating Degree Days 30    
Moisture  
Dew Point 20 °F    
Average Humidity 54    
Maximum Humidity 86    
Minimum Humidity 23    
Precipitation  
Precipitation 0.00 in - - ()
Sea Level Pressure  
Sea Level Pressure 30.13 in    
Wind  
Wind Speed 14 mph ()    
Max Wind Speed 31 mph    
Max Gust Speed 39 mph    
Visibility 9.3 miles    
Events      
Averages and records for this station are not official NWS values.
T = Trace of Precipitation, MM = Missing Value Source: Averaged Metar Reports

Daily Weather History Graph

Daily Weather History Graph

Search for Another Location

Airport or City:

Astronomy

Nov. 16, 2019 Rise Set
Actual Time 6:56 AM MST 4:44 PM MST
Civil Twilight 6:26 AM MST 5:14 PM MST
Nautical Twilight 5:52 AM MST 5:48 PM MST
Astronomical Twilight 5:19 AM MST 6:21 PM MST
Moon 8:18 PM MST (11/16) 10:54 AM MST (11/16)
Length of Visible Light 10h 48m
Length of Day
9h 48m
Waning Gibbous, 82% of the Moon is Illuminated
Nov 16
Waning Gibbous
Nov 19
Last Quarter
Nov 26
New
Dec 3
First Quarter
Dec 11
Full

Hourly Weather History & Observations

Time (MST) Temp. Windchill Dew Point Humidity Pressure Visibility Wind Dir Wind Speed Gust Speed Precip Events Conditions
12:10 AM 44.6 °F 36.9 °F 8.6 °F 23% 30.10 in 10.0 mi WSW 18.4 mph 28.8 mph N/A   Scattered Clouds
12:30 AM 44.6 °F 37.8 °F 8.6 °F 23% 30.10 in 10.0 mi WSW 15.0 mph - N/A   Mostly Cloudy
12:50 AM 44.6 °F 38.1 °F 8.6 °F 23% 30.09 in 10.0 mi WSW 13.8 mph - N/A   Overcast
1:10 AM 42.8 °F 36.6 °F 10.4 °F 27% 30.09 in 10.0 mi WSW 11.5 mph - N/A   Scattered Clouds
1:30 AM 42.8 °F 35.4 °F 10.4 °F 27% 30.09 in 10.0 mi SW 15.0 mph 21.9 mph N/A   Scattered Clouds
1:50 AM 42.8 °F 36.6 °F 10.4 °F 27% 30.09 in 10.0 mi SW 11.5 mph 18.4 mph N/A   Scattered Clouds
2:10 AM 42.8 °F 35.8 °F 10.4 °F 27% 30.08 in 10.0 mi SW 13.8 mph 19.6 mph N/A   Clear
2:30 AM 42.8 °F 35.4 °F 10.4 °F 27% 30.08 in 10.0 mi SW 15.0 mph 20.7 mph N/A   Clear
2:55 AM 42.8 °F 35.1 °F 10.4 °F 27% 30.07 in 10.0 mi WSW 16.1 mph 23.0 mph N/A   Clear
3:10 AM 42.8 °F 34.8 °F 10.4 °F 27% 30.06 in 10.0 mi WSW 17.3 mph 24.2 mph N/A   Clear
3:30 AM 42.8 °F 34.5 °F 10.4 °F 27% 30.07 in 10.0 mi WSW 18.4 mph 25.3 mph N/A   Clear
3:50 AM 39.2 °F 32.0 °F 12.2 °F 33% 30.08 in 10.0 mi West 11.5 mph 20.7 mph N/A   Clear
4:10 AM 39.2 °F 31.2 °F 12.2 °F 33% 30.08 in 10.0 mi WSW 13.8 mph - N/A   Clear
4:30 AM 41.0 °F 33.1 °F 12.2 °F 31% 30.08 in 10.0 mi WSW 15.0 mph - N/A   Clear
4:55 AM 41.0 °F 31.6 °F 14.0 °F 33% 30.08 in 10.0 mi WSW 20.7 mph 25.3 mph N/A   Clear
5:10 AM 41.0 °F 31.4 °F 12.2 °F 31% 30.08 in 10.0 mi WSW 21.9 mph 26.5 mph N/A   Clear
5:30 AM 41.0 °F 32.2 °F 12.2 °F 31% 30.09 in 10.0 mi WSW 18.4 mph 24.2 mph N/A   Scattered Clouds
5:50 AM 41.0 °F 32.2 °F 14.0 °F 33% 30.09 in 10.0 mi WSW 18.4 mph 27.6 mph N/A   Mostly Cloudy
6:10 AM 41.0 °F 31.6 °F 14.0 °F 33% 30.09 in 10.0 mi WSW 20.7 mph 25.3 mph N/A   Overcast
6:30 AM 41.0 °F 31.9 °F 14.0 °F 33% 30.09 in 10.0 mi WSW 19.6 mph 28.8 mph N/A   Overcast
6:50 AM 41.0 °F 31.4 °F 15.8 °F 36% 30.09 in 10.0 mi WSW 21.9 mph 29.9 mph N/A   Overcast
7:10 AM 41.0 °F 31.6 °F 17.6 °F 39% 30.09 in 10.0 mi WSW 20.7 mph 31.1 mph N/A   Overcast
7:35 AM 41.0 °F 30.9 °F 21.2 °F 45% 30.08 in 10.0 mi WSW 24.2 mph 28.8 mph N/A   Mostly Cloudy
7:50 AM 39.2 °F 28.5 °F 23.0 °F 52% 30.09 in 10.0 mi WSW 24.2 mph 34.5 mph N/A   Mostly Cloudy
8:10 AM 41.0 °F 30.7 °F 23.0 °F 49% 30.09 in 10.0 mi WSW 25.3 mph 32.2 mph N/A   Mostly Cloudy
8:30 AM 41.0 °F 30.9 °F 23.0 °F 49% 30.09 in 10.0 mi WSW 24.2 mph 33.4 mph N/A   Mostly Cloudy
8:50 AM 39.2 °F 28.0 °F 23.0 °F 52% 30.08 in 10.0 mi WSW 26.5 mph 35.7 mph N/A   Scattered Clouds
9:10 AM 42.8 °F 33.1 °F 21.2 °F 42% 30.08 in 10.0 mi WSW 25.3 mph 35.7 mph N/A   Clear
9:30 AM 41.0 °F 30.9 °F 21.2 °F 45% 30.09 in 10.0 mi WSW 24.2 mph 36.8 mph N/A   Clear
9:50 AM 41.0 °F 30.7 °F 21.2 °F 45% 30.09 in 10.0 mi WSW 25.3 mph 32.2 mph N/A   Scattered Clouds
10:10 AM 42.8 °F 33.3 °F 19.4 °F 39% 30.09 in 10.0 mi WSW 24.2 mph 29.9 mph N/A   Mostly Cloudy
10:30 AM 44.6 °F 35.1 °F 17.6 °F 34% 30.09 in 10.0 mi West 27.6 mph 33.4 mph N/A   Mostly Cloudy
10:50 AM 44.6 °F 34.7 °F 19.4 °F 37% 30.08 in 10.0 mi West 29.9 mph 38.0 mph N/A   Mostly Cloudy
11:10 AM 44.6 °F 34.6 °F 19.4 °F 37% 30.08 in 10.0 mi West 31.1 mph 39.1 mph N/A   Mostly Cloudy
11:30 AM 42.8 °F 32.7 °F 21.2 °F 42% 30.08 in 10.0 mi West 27.6 mph 38.0 mph N/A   Overcast
11:50 AM 42.8 °F 34.0 °F 21.2 °F 42% 30.08 in 10.0 mi West 20.7 mph 29.9 mph N/A   Overcast
12:10 PM 42.8 °F 33.3 °F 21.2 °F 42% 30.07 in 10.0 mi West 24.2 mph 29.9 mph N/A   Overcast
12:50 PM 37.4 °F 27.2 °F 28.4 °F 70% 30.08 in 4.0 mi West 19.6 mph 35.7 mph N/A   Overcast
1:10 PM 39.2 °F 28.5 °F 26.6 °F 61% 30.07 in 10.0 mi West 24.2 mph 27.6 mph N/A   Overcast
1:30 PM 37.4 °F 26.9 °F 26.6 °F 65% 30.08 in 7.0 mi NW 20.7 mph 32.2 mph N/A   Overcast
1:50 PM 37.4 °F 29.3 °F 30.2 °F 75% 30.10 in 10.0 mi WNW 12.7 mph - N/A   Overcast
2:10 PM 37.4 °F 28.9 °F 30.2 °F 75% 30.11 in 10.0 mi NW 13.8 mph 21.9 mph N/A   Overcast
2:30 PM 33.8 °F 22.8 °F 28.4 °F 81% 30.13 in 7.0 mi North 18.4 mph 23.0 mph N/A   Overcast
2:50 PM 32.0 °F 22.5 °F 26.6 °F 80% 30.14 in 10.0 mi North 12.7 mph 21.9 mph N/A   Overcast
3:10 PM 32.0 °F 24.2 °F 24.8 °F 75% 30.15 in 10.0 mi North 9.2 mph - N/A   Overcast
3:30 PM 32.0 °F 27.5 °F 24.8 °F 75% 30.17 in 4.0 mi North 4.6 mph - N/A   Overcast
3:50 PM 32.0 °F 24.2 °F 26.6 °F 80% 30.18 in 1.8 mi North 9.2 mph - N/A   Overcast
4:10 PM 32.0 °F 24.8 °F 26.6 °F 80% 30.18 in 2.5 mi North 8.1 mph - N/A   Overcast
4:30 PM 30.2 °F 23.4 °F 26.6 °F 86% 30.19 in 10.0 mi NNW 6.9 mph - N/A   Overcast
4:50 PM 30.2 °F 26.7 °F 26.6 °F 86% 30.21 in 4.0 mi NW 3.5 mph - N/A   Overcast
5:10 PM 30.2 °F - 26.6 °F 86% 30.21 in 4.0 mi Calm Calm - N/A   Overcast
5:30 PM 30.2 °F 26.7 °F 26.6 °F 86% 30.21 in 10.0 mi SW 3.5 mph - N/A   Overcast
5:50 PM 30.2 °F - 26.6 °F 86% 30.23 in 10.0 mi Calm Calm - N/A   Overcast
6:30 PM 30.2 °F 26.7 °F 24.8 °F 80% 30.23 in 10.0 mi South 3.5 mph - N/A   Overcast
7:10 PM 30.2 °F - 23.0 °F 75% 30.23 in 10.0 mi Calm Calm - N/A   Overcast
7:35 PM 30.2 °F 25.4 °F 23.0 °F 75% 30.23 in 10.0 mi South 4.6 mph - N/A   Overcast
7:55 PM 30.2 °F - 23.0 °F 75% 30.23 in 10.0 mi Calm Calm - N/A   Overcast
8:10 PM 30.2 °F - 21.2 °F 69% 30.23 in 10.0 mi Calm Calm - N/A   Overcast
8:30 PM 28.4 °F 24.6 °F 21.2 °F 74% 30.23 in 10.0 mi NNW 3.5 mph - N/A   Overcast
8:50 PM 28.4 °F 23.3 °F 21.2 °F 74% 30.23 in 10.0 mi NNW 4.6 mph - N/A   Overcast
9:10 PM 28.4 °F - 21.2 °F 74% 30.23 in 10.0 mi Calm Calm - N/A   Overcast
9:30 PM 28.4 °F 23.3 °F 21.2 °F 74% 30.23 in 10.0 mi West 4.6 mph - N/A   Overcast
9:50 PM 28.4 °F 21.2 °F 21.2 °F 74% 30.23 in 10.0 mi West 6.9 mph - N/A   Overcast
10:15 PM 30.2 °F - 21.2 °F 69% 30.23 in 10.0 mi Calm Calm - N/A   Overcast
10:30 PM 30.2 °F - 21.2 °F 69% 30.23 in 10.0 mi Calm Calm - N/A   Overcast
10:50 PM 26.6 °F - 19.4 °F 74% 30.21 in 10.0 mi Calm Calm - N/A   Mostly Cloudy
11:10 PM 26.6 °F - 19.4 °F 74% 30.21 in 10.0 mi Calm Calm - N/A   Scattered Clouds
11:30 PM 28.4 °F 23.3 °F 21.2 °F 74% 30.21 in 10.0 mi West 4.6 mph - N/A   Mostly Cloudy
11:50 PM 30.2 °F 26.7 °F 21.2 °F 69% 30.21 in 10.0 mi West 3.5 mph - N/A   Overcast